,

(GMT )
Elsenborn

Weather History for EBLB - November, 2012

Change the Weather History Date:

Thursday, November 22, 2012

  Actual Average Record
Temperature  
Mean Temperature 40 °F -  
Max Temperature 44 °F 38 °F 57 °F (2011)
Min Temperature 37 °F 32 °F 14 °F (1998)
Degree Days  
Heating Degree Days 24    
Moisture  
Dew Point 38 °F    
Average Humidity 91    
Maximum Humidity 100    
Minimum Humidity 81    
Precipitation  
Precipitation 0.00 in - - ()
Sea Level Pressure  
Sea Level Pressure 30.13 in    
Wind  
Wind Speed 8 mph ()    
Max Wind Speed 14 mph    
Max Gust Speed 21 mph    
Visibility 6.4 miles    
Events      
Averages and records for this station are not official NWS values.
T = Trace of Precipitation, MM = Missing Value Source: Averaged Metar Reports

Daily Weather History Graph

Daily Weather History Graph

Search for Another Location

Airport or City:

Trip Planner

Search our weather history database for the weather conditions in past years. The results will help you decide how hot, cold, wet, or windy it might be!

Date:

Astronomy

Nov. 22, 2012 Rise Set
Actual Time 8:01 AM CET 4:41 PM CET
Civil Twilight 7:24 AM CET 5:18 PM CET
Nautical Twilight 6:43 AM CET 5:58 PM CET
Astronomical Twilight 6:05 AM CET 6:37 PM CET
Moon 1:49 PM CET (11/22) 1:31 AM CET (11/22)
Length of Visible Light 9h 53m
Length of Day
8h 39m
Waxing Gibbous, 69% of the Moon is Illuminated
Nov 22
Waxing Gibbous
Nov 28
Full
Dec 6
Last Quarter
Dec 13
New
Dec 20
First Quarter

Hourly Weather History & Observations

Time (CET) Temp. Windchill Dew Point Humidity Pressure Visibility Wind Dir Wind Speed Gust Speed Precip Events Conditions
12:25 AM 42.8 °F 36.6 °F 39.2 °F 87% 30.09 in 6.2 mi WSW 11.5 mph - N/A   Mostly Cloudy
12:49 AM 42.8 °F 37.0 °F 39.2 °F 87% 30.09 in 6.2 mi WSW 10.4 mph - N/A   Partly Cloudy
1:00 AM 42 °F - 38 °F 82% 30.15 in 19 mi WSW 11.2 mph - -   Scattered Clouds
1:14 AM 41.0 °F 34.7 °F 39.2 °F 93% 30.09 in 6.2 mi WSW 10.4 mph - N/A   Mostly Cloudy
1:20 AM 41.0 °F 34.7 °F 39.2 °F 93% 30.09 in 6.2 mi WSW 10.4 mph - N/A   Mostly Cloudy
1:25 AM 41.0 °F 34.7 °F 39.2 °F 93% 30.09 in 6.2 mi WSW 10.4 mph - N/A   Mostly Cloudy
2:25 AM 41.0 °F 34.7 °F 39.2 °F 93% 30.12 in 6.2 mi WSW 10.4 mph - N/A   Mostly Cloudy
2:54 AM 41.0 °F 35.2 °F 39.2 °F 93% 30.12 in 6.2 mi WSW 9.2 mph - N/A   Mostly Cloudy
3:25 AM 41.0 °F 35.8 °F 39.2 °F 93% 30.12 in 6.2 mi WSW 8.1 mph - N/A   Mostly Cloudy
4:00 AM 42 °F - 40 °F 89% 30.18 in 12 mi SW 6.7 mph - -   Partly Cloudy
4:25 AM 41.0 °F 36.4 °F 41.0 °F 100% 30.12 in 6.2 mi SW 6.9 mph - N/A   Mostly Cloudy
4:59 AM 41.0 °F 36.4 °F 41.0 °F 100% 30.12 in 6.2 mi SW 6.9 mph - N/A   Overcast
5:25 AM 41.0 °F 37.1 °F 41.0 °F 100% 30.15 in 6.2 mi SW 5.8 mph - N/A   Mostly Cloudy
5:39 AM 41.0 °F 35.8 °F 39.2 °F 93% 30.15 in 6.2 mi SW 8.1 mph - N/A   Overcast
6:25 AM 41.0 °F 36.4 °F 39.2 °F 93% 30.15 in 6.2 mi SW 6.9 mph - N/A   Mostly Cloudy
6:28 AM 41.0 °F 37.1 °F 39.2 °F 93% 30.15 in 6.2 mi SW 5.8 mph - N/A   Mostly Cloudy
6:34 AM 41.0 °F 37.1 °F 39.2 °F 93% 30.15 in 6.2 mi SW 5.8 mph - N/A   Overcast
6:40 AM 41.0 °F 36.4 °F 39.2 °F 93% 30.15 in 6.2 mi SW 6.9 mph - N/A   Overcast
7:00 AM 42 °F - 40 °F 88% 30.21 in 12 mi SW 6.7 mph - -   Scattered Clouds
7:25 AM 41.0 °F 36.4 °F 39.2 °F 93% 30.15 in 6.2 mi SSW 6.9 mph - N/A   Mostly Cloudy
7:54 AM 41.0 °F 38.0 °F 39.2 °F 93% 30.15 in 6.2 mi SSW 4.6 mph - N/A   Mostly Cloudy
8:25 AM 39.2 °F 35.0 °F 39.2 °F 100% 30.18 in 6.2 mi SSW 5.8 mph - N/A   Mostly Cloudy
8:29 AM 39.2 °F 35.0 °F 39.2 °F 100% 30.18 in 6.2 mi SSW 5.8 mph - N/A   Mostly Cloudy
9:25 AM 39.2 °F 35.0 °F 37.4 °F 93% 30.18 in 6.2 mi SSW 5.8 mph - N/A   Mostly Cloudy
9:38 AM 39.2 °F 35.0 °F 37.4 °F 93% 30.18 in 1.2 mi SSW 5.8 mph - N/A   Mostly Cloudy
10:00 AM 39 °F - 39 °F 98% 30.25 in 1 mi SSW 6.7 mph - -   Mist
10:25 AM 39.2 °F 34.2 °F 37.4 °F 93% 30.18 in 1.2 mi SSW 6.9 mph - N/A   Mostly Cloudy
11:25 AM 41.0 °F 35.2 °F 37.4 °F 87% 30.18 in 6.2 mi South 9.2 mph - N/A   Mostly Cloudy
12:25 PM 42.8 °F 37.5 °F 39.2 °F 87% 30.18 in 6.2 mi SSW 9.2 mph - N/A   Mostly Cloudy
12:44 PM 41.0 °F 35.8 °F 39.2 °F 93% 30.18 in 6.2 mi SSW 8.1 mph - N/A   Mostly Cloudy
1:00 PM 42 °F - 39 °F 86% 30.22 in 12 mi South 8.9 mph - -   Mostly Cloudy
1:25 PM 44.6 °F 39.2 °F 39.2 °F 81% 30.15 in 6.2 mi South 10.4 mph - N/A   Scattered Clouds
2:25 PM 42.8 °F 37.0 °F 37.4 °F 81% 30.15 in 6.2 mi South 10.4 mph - N/A   Scattered Clouds
3:25 PM 42.8 °F 37.0 °F 37.4 °F 81% 30.12 in 6.2 mi South 10.4 mph - N/A   Clear
3:54 PM 41.0 °F 35.2 °F 37.4 °F 87% 30.12 in 6.2 mi SSW 9.2 mph - N/A   Scattered Clouds
4:00 PM 40 °F - 37 °F 85% 30.19 in 16 mi SSW 8.9 mph - -   Clear
4:00 PM 39.2 °F 34.2 °F 37.4 °F 93% 30.12 in 6.2 mi SSW 6.9 mph - N/A   Partly Cloudy
4:25 PM 39.2 °F 35.9 °F 37.4 °F 93% 30.12 in 6.2 mi South 4.6 mph - N/A   Partly Cloudy
4:34 PM 39.2 °F 34.2 °F 37.4 °F 93% 30.12 in 6.2 mi South 6.9 mph - N/A   Scattered Clouds
4:49 PM 39.2 °F 33.0 °F 37.4 °F 93% 30.12 in 6.2 mi South 9.2 mph - N/A   Mostly Cloudy
4:59 PM 39.2 °F 33.0 °F 37.4 °F 93% 30.12 in 6.2 mi South 9.2 mph - N/A   Mostly Cloudy
5:19 PM 39.2 °F 33.6 °F 37.4 °F 93% 30.12 in 6.2 mi South 8.1 mph - N/A   Mostly Cloudy
5:25 PM 39.2 °F 33.6 °F 37.4 °F 93% 30.09 in 6.2 mi South 8.1 mph - N/A   Mostly Cloudy
5:44 PM 39.2 °F 33.6 °F 37.4 °F 93% 30.12 in 6.2 mi South 8.1 mph - N/A   Mostly Cloudy
6:19 PM 39.2 °F 33.0 °F 37.4 °F 93% 30.12 in 6.2 mi South 9.2 mph 20.7 mph N/A   Overcast
6:25 PM 39.2 °F 32.5 °F 37.4 °F 93% 30.12 in 6.2 mi SSW 10.4 mph - N/A   Overcast
6:31 PM 39.2 °F 32.5 °F 37.4 °F 93% 30.12 in 6.2 mi South 10.4 mph - N/A   Mostly Cloudy
7:00 PM 39 °F - 37 °F 90% 30.18 in 7 mi SSW 11.2 mph - -   Clear
7:19 PM 39.2 °F 32.0 °F 35.6 °F 87% 30.09 in 6.2 mi SSW 11.5 mph - N/A   Mostly Cloudy
7:25 PM 39.2 °F 32.0 °F 37.4 °F 93% 30.09 in 6.2 mi South 11.5 mph - N/A   Mostly Cloudy
7:37 PM 39.2 °F 31.6 °F 35.6 °F 87% 30.09 in 6.2 mi South 12.7 mph - N/A   Mostly Cloudy
8:25 PM 39.2 °F 31.2 °F 35.6 °F 87% 30.09 in 6.2 mi South 13.8 mph - N/A   Scattered Clouds
9:25 PM 39.2 °F 31.6 °F 35.6 °F 87% 30.09 in 6.2 mi South 12.7 mph - N/A   Mostly Cloudy
9:29 PM 39.2 °F 32.0 °F 35.6 °F 87% 30.09 in 6.2 mi South 11.5 mph - N/A   Mostly Cloudy
9:39 PM 39.2 °F 32.0 °F 35.6 °F 87% 30.09 in 6.2 mi SSW 11.5 mph - N/A   Mostly Cloudy
10:00 PM 38 °F - 36 °F 90% 30.15 in 6 mi South 11.2 mph - -   Mostly Cloudy
10:04 PM 39.2 °F 32.0 °F 35.6 °F 87% 30.09 in 5.6 mi South 11.5 mph - N/A   Mostly Cloudy
10:25 PM 37.4 °F 30.3 °F 35.6 °F 93% 30.06 in 5.6 mi South 10.4 mph - N/A   Mostly Cloudy
10:28 PM 37.4 °F 30.3 °F 35.6 °F 93% 30.06 in 5.0 mi South 10.4 mph - N/A   Scattered Clouds
10:44 PM 37.4 °F 30.3 °F 35.6 °F 93% 30.06 in 5.0 mi South 10.4 mph - N/A   Partly Cloudy
10:51 PM 37.4 °F 30.8 °F 35.6 °F 93% 30.06 in 4.3 mi SSW 9.2 mph - N/A   Partly Cloudy
11:19 PM 37.4 °F 31.4 °F 37.4 °F 100% 30.06 in 4.3 mi SSW 8.1 mph - N/A   Scattered Clouds
11:25 PM 37.4 °F 30.8 °F 37.4 °F 100% 30.06 in 3.7 mi SSW 9.2 mph - N/A   Scattered Clouds